N3UJJ-1 Weather Reports


Display with metric or nautical units.
time (UTC)temp
F
wind
direction
speed
MPH
gust
MPH
rain 1hr
in
rain 24hr
in
rain mn
in
humidity
%
barometer
mb
20260505011550 68 136 4.0 8.0 0.00 0.00 0.00 51 1009.9
20260505010050 69 136 2.0 6.0 0.00 0.00 0.00 49 1009.8
20260505004550 70 132 1.0 6.0 0.00 0.00 0.00 48 1009.6
20260505004458 70 135 5.0 8.0 0.00 0.00 0.00 48 1009.6
20260505003050 70 137 0.0 5.0 0.00 0.00 0.00 48 1009.6
20260505001550 70 147 0.0 5.0 0.00 0.00 0.00 48 1009.6
20260505000050 71 136 0.0 9.0 0.00 0.00 0.00 47 1009.6
20260504234550 72 161 1.0 9.0 0.00 0.00 0.00 45 1009.5
20260504234504 72 140 0.0 5.0 0.00 0.00 0.00 45 1009.5
20260504233050 73 139 4.0 11.0 0.00 0.00 0.00 44 1009.3
20260504231550 73 154 4.0 11.0 0.00 0.00 0.00 43 1009.4
20260504230020 74 148 0.0 13.0 0.00 0.00 0.00 43 1009.4
20260504224503 74 135 4.0 11.0 0.00 0.00 0.00 42 1009.3
20260504224450 74 205 1.0 13.0 0.00 0.00 0.00 41 1009.3
20260504222950 75 123 0.0 13.0 0.00 0.00 0.00 41 1009.3
20260504221450 75 155 2.0 13.0 0.00 0.00 0.00 40 1009.1
20260504215950 75 173 0.0 15.0 0.00 0.00 0.00 39 1009.0
20260504214503 75 121 2.0 14.0 0.00 0.00 0.00 39 1009.2
20260504214450 75 104 2.0 15.0 0.00 0.00 0.00 39 1009.1
20260504212950 75 167 7.0 14.0 0.00 0.00 0.00 39 1009.2
20260504211450 75 123 8.0 14.0 0.00 0.00 0.00 38 1009.3
20260504205949 75 138 5.0 14.0 0.00 0.00 0.00 38 1009.3
20260504204459 75 148 5.0 10.0 0.00 0.00 0.00 38 1009.5
20260504204449 76 142 7.0 14.0 0.00 0.00 0.00 38 1009.3
20260504202949 75 150 6.0 13.0 0.00 0.00 0.00 39 1009.6
20260504201449 76 306 2.0 13.0 0.00 0.00 0.00 39 1009.7
20260504195919 75 144 6.0 15.0 0.00 0.00 0.00 39 1009.8
20260504194446 75 76 4.0 9.0 0.00 0.00 0.00 39 1010.1
20260504194419 75 150 6.0 15.0 0.00 0.00 0.00 40 1010.1
20260504192920 75 136 7.0 13.0 0.00 0.00 0.00 39 1010.3
20260504191419 75 128 2.0 13.0 0.00 0.00 0.00 39 1010.6
20260504185919 75 142 1.0 11.0 0.00 0.00 0.00 40 1010.7
20260504184501 74 161 6.0 10.0 0.00 0.00 0.00 38 1010.9
20260504184419 74 124 8.0 11.0 0.00 0.00 0.00 38 1010.9
20260504181419 74 336 1.0 15.0 0.00 0.00 0.00 41 1011.3
20260504175919 73 175 2.0 15.0 0.00 0.00 0.00 39 1011.4
20260504174459 73 158 6.0 15.0 0.00 0.00 0.00 40 1011.6
20260504174419 73 124 9.0 15.0 0.00 0.00 0.00 40 1011.6
20260504172919 72 197 1.0 8.0 0.00 0.00 0.00 40 1012.0